Time,TemperatureF,DewpointF,PressureIn,WindDirection,WindDirectionDegrees,WindSpeedMPH,WindSpeedGustMPH,Humidity,HourlyPrecipIn,Conditions,Clouds,dailyrainin,SoftwareType,DateUTC
2013-06-23 00:11:00,79.0,62.0,29.52,East,88,0.0,5.0,56,0.08,,,0.25,,2013-06-23 05:11:00,
2013-06-23 00:22:00,79.0,62.0,29.52,East,88,0.0,5.0,56,0.08,,,0.25,,2013-06-23 05:22:00,
2013-06-23 00:32:00,79.0,62.0,29.52,East,88,0.0,5.0,56,0.08,,,0.25,,2013-06-23 05:32:00,
2013-06-23 00:41:00,65.0,57.0,29.61,NNE,18,11.0,19.0,75,0.01,,,0.26,,2013-06-23 05:41:00,
2013-06-23 00:51:00,67.0,57.0,29.60,North,5,10.0,19.0,70,0.00,,,0.26,,2013-06-23 05:51:00,
2013-06-23 01:02:00,65.0,56.0,29.57,NNE,22,12.0,20.0,74,0.00,,,0.26,,2013-06-23 06:02:00,
2013-06-23 01:12:00,65.0,56.0,29.57,NNE,22,12.0,20.0,74,0.00,,,0.26,,2013-06-23 06:12:00,
2013-06-23 01:22:00,66.0,57.0,29.59,ESE,103,1.0,19.0,73,0.03,,,0.28,,2013-06-23 06:22:00,
2013-06-23 01:33:00,65.0,59.0,29.68,WSW,250,5.0,22.0,80,0.16,,,0.42,,2013-06-23 06:33:00,
2013-06-23 01:43:00,65.0,59.0,29.68,WSW,250,5.0,22.0,80,0.16,,,0.42,,2013-06-23 06:43:00,
2013-06-23 01:52:00,63.0,59.0,29.63,NE,55,3.0,12.0,86,0.21,,,0.47,,2013-06-23 06:52:00,
2013-06-23 02:02:00,63.0,59.0,29.64,NE,34,6.0,10.0,87,0.21,,,0.47,,2013-06-23 07:02:00,
2013-06-23 02:12:00,63.0,59.0,29.64,NE,34,6.0,10.0,87,0.21,,,0.47,,2013-06-23 07:12:00,
2013-06-23 02:22:00,63.0,59.0,29.67,SSE,150,4.0,11.0,87,0.18,,,0.47,,2013-06-23 07:22:00,
2013-06-23 02:34:00,62.0,59.0,29.65,East,101,0.0,4.0,89,0.05,,,0.47,,2013-06-23 07:34:00,
2013-06-23 02:43:00,62.0,59.0,29.65,East,101,0.0,4.0,89,0.05,,,0.47,,2013-06-23 07:43:00,
2013-06-23 02:53:00,62.0,59.0,29.68,SW,229,1.0,4.0,89,0.00,,,0.47,,2013-06-23 07:53:00,
2013-06-23 03:02:00,63.0,60.0,29.71,West,273,1.0,3.0,90,0.00,,,0.47,,2013-06-23 08:02:00,
2013-06-23 03:11:00,63.0,60.0,29.71,West,273,1.0,3.0,90,0.00,,,0.47,,2013-06-23 08:11:00,
2013-06-23 03:22:00,63.0,60.0,29.71,West,273,1.0,3.0,90,0.00,,,0.47,,2013-06-23 08:22:00,
2013-06-23 03:33:00,63.0,60.0,29.70,SE,126,2.0,8.0,91,0.00,,,0.47,,2013-06-23 08:33:00,
2013-06-23 03:43:00,63.0,60.0,29.70,SE,126,2.0,8.0,91,0.00,,,0.47,,2013-06-23 08:43:00,
2013-06-23 03:53:00,63.0,60.0,29.67,SE,144,1.0,5.0,91,0.01,,,0.48,,2013-06-23 08:53:00,
2013-06-23 04:02:00,62.0,60.0,29.63,SE,132,2.0,6.0,92,0.01,,,0.48,,2013-06-23 09:02:00,
2013-06-23 04:12:00,62.0,60.0,29.63,SE,132,2.0,6.0,92,0.01,,,0.48,,2013-06-23 09:12:00,
2013-06-23 04:22:00,62.0,59.0,29.62,SE,132,2.0,6.0,91,0.01,,,0.48,,2013-06-23 09:22:00,
2013-06-23 04:34:00,62.0,59.0,29.63,SSE,155,4.0,8.0,91,0.00,,,0.48,,2013-06-23 09:34:00,
2013-06-23 04:43:00,62.0,59.0,29.63,SSE,155,4.0,8.0,91,0.00,,,0.48,,2013-06-23 09:43:00,
2013-06-23 04:54:00,62.0,59.0,29.62,SSE,151,2.0,8.0,90,0.00,,,0.48,,2013-06-23 09:54:00,
2013-06-23 05:02:00,62.0,59.0,29.62,SSE,151,2.0,8.0,90,0.00,,,0.48,,2013-06-23 10:02:00,
2013-06-23 05:11:00,62.0,59.0,29.62,SSE,151,2.0,8.0,90,0.00,,,0.48,,2013-06-23 10:11:00,
2013-06-23 05:22:00,62.0,59.0,29.60,SSE,148,1.0,6.0,90,0.00,,,0.48,,2013-06-23 10:22:00,
2013-06-23 05:34:00,62.0,59.0,29.60,SE,134,2.0,5.0,89,0.00,,,0.48,,2013-06-23 10:34:00,
2013-06-23 05:43:00,62.0,59.0,29.60,SE,134,2.0,5.0,89,0.00,,,0.48,,2013-06-23 10:43:00,
2013-06-23 05:53:00,62.0,59.0,29.60,SE,134,2.0,5.0,89,0.00,,,0.48,,2013-06-23 10:53:00,
2013-06-23 06:01:00,62.0,59.0,29.64,SE,140,2.0,6.0,89,0.00,,,0.48,,2013-06-23 11:01:00,
2013-06-23 06:11:00,62.0,59.0,29.64,SE,140,2.0,6.0,89,0.00,,,0.48,,2013-06-23 11:11:00,
2013-06-23 06:22:00,61.0,58.0,29.65,SE,136,0.0,6.0,90,0.00,,,0.48,,2013-06-23 11:22:00,
2013-06-23 06:33:00,61.0,58.0,29.67,South,174,0.0,4.0,90,0.00,,,0.48,,2013-06-23 11:33:00,
2013-06-23 06:43:00,61.0,58.0,29.67,South,174,0.0,4.0,90,0.00,,,0.48,,2013-06-23 11:43:00,
2013-06-23 06:53:00,61.0,58.0,29.71,WNW,298,5.0,9.0,91,0.00,,,0.48,,2013-06-23 11:53:00,
2013-06-23 07:01:00,61.0,58.0,29.71,WNW,298,5.0,9.0,91,0.00,,,0.48,,2013-06-23 12:01:00,
2013-06-23 07:12:00,61.0,58.0,29.71,WNW,298,5.0,9.0,91,0.00,,,0.48,,2013-06-23 12:12:00,
2013-06-23 07:22:00,61.0,59.0,29.71,NE,46,0.0,5.0,92,0.00,,,0.48,,2013-06-23 12:22:00,
2013-06-23 07:33:00,61.0,58.0,29.71,NE,56,0.0,2.0,91,0.00,,,0.48,,2013-06-23 12:33:00,
2013-06-23 07:43:00,61.0,58.0,29.71,NE,56,0.0,2.0,91,0.00,,,0.48,,2013-06-23 12:43:00,
2013-06-23 07:53:00,62.0,59.0,29.72,NE,56,0.0,1.0,91,0.00,,,0.48,,2013-06-23 12:53:00,
2013-06-23 08:01:00,63.0,59.0,29.72,ENE,66,0.0,2.0,88,0.00,,,0.48,,2013-06-23 13:01:00,
2013-06-23 08:11:00,63.0,59.0,29.72,ENE,66,0.0,2.0,88,0.00,,,0.48,,2013-06-23 13:11:00,
2013-06-23 08:23:00,64.0,60.0,29.73,ENE,76,0.0,1.0,86,0.00,,,0.48,,2013-06-23 13:23:00,
2013-06-23 08:34:00,65.0,60.0,29.73,East,101,0.0,3.0,83,0.00,,,0.48,,2013-06-23 13:34:00,
2013-06-23 08:43:00,65.0,60.0,29.73,East,101,0.0,3.0,83,0.00,,,0.48,,2013-06-23 13:43:00,
2013-06-23 08:54:00,65.0,60.0,29.73,WNW,299,2.0,4.0,84,0.00,,,0.48,,2013-06-23 13:54:00,
2013-06-23 09:04:00,65.0,60.0,29.74,NNW,332,0.0,3.0,84,0.00,,,0.48,,2013-06-23 14:04:00,
2013-06-23 09:11:00,65.0,60.0,29.74,NNW,332,0.0,3.0,84,0.00,,,0.48,,2013-06-23 14:11:00,
2013-06-23 09:22:00,66.0,59.0,29.74,North,5,0.0,1.0,77,0.00,,,0.48,,2013-06-23 14:22:00,
2013-06-23 09:34:00,67.0,59.0,29.74,NNE,15,0.0,4.0,75,0.00,,,0.48,,2013-06-23 14:34:00,
2013-06-23 09:44:00,67.0,59.0,29.74,NNE,15,0.0,4.0,75,0.00,,,0.48,,2013-06-23 14:44:00,
2013-06-23 09:52:00,68.0,59.0,29.75,WNW,300,0.0,3.0,74,0.00,,,0.48,,2013-06-23 14:52:00,
2013-06-23 10:05:00,69.0,61.0,29.74,North,5,1.0,5.0,75,0.00,,,0.48,,2013-06-23 15:05:00,
2013-06-23 10:11:00,69.0,61.0,29.74,North,5,1.0,5.0,75,0.00,,,0.48,,2013-06-23 15:11:00,
2013-06-23 10:22:00,69.0,60.0,29.75,North,9,1.0,4.0,74,0.00,,,0.48,,2013-06-23 15:22:00,
2013-06-23 10:35:00,71.0,61.0,29.75,East,84,1.0,5.0,71,0.00,,,0.48,,2013-06-23 15:35:00,
2013-06-23 10:43:00,71.0,61.0,29.75,East,84,1.0,5.0,71,0.00,,,0.48,,2013-06-23 15:43:00,
2013-06-23 10:53:00,72.0,61.0,29.75,SE,140,1.0,5.0,69,0.00,,,0.48,,2013-06-23 15:53:00,
2013-06-23 11:06:00,72.0,61.0,29.75,ENE,64,0.0,4.0,69,0.00,,,0.48,,2013-06-23 16:06:00,
2013-06-23 11:11:00,72.0,61.0,29.75,ENE,64,0.0,4.0,69,0.00,,,0.48,,2013-06-23 16:11:00,
2013-06-23 11:22:00,72.0,61.0,29.74,ENE,68,1.0,3.0,68,0.00,,,0.48,,2013-06-23 16:22:00,
2013-06-23 11:36:00,72.0,61.0,29.75,NE,54,1.0,5.0,69,0.00,,,0.48,,2013-06-23 16:36:00,
2013-06-23 11:42:00,72.0,61.0,29.75,NE,54,1.0,5.0,69,0.00,,,0.48,,2013-06-23 16:42:00,
2013-06-23 11:53:00,74.0,63.0,29.75,SSE,152,1.0,5.0,69,0.00,,,0.48,,2013-06-23 16:53:00,
2013-06-23 12:03:00,74.0,62.0,29.75,NE,34,2.0,6.0,66,0.00,,,0.48,,2013-06-23 17:03:00,
2013-06-23 12:11:00,74.0,62.0,29.75,NE,34,2.0,6.0,66,0.00,,,0.48,,2013-06-23 17:11:00,
2013-06-23 12:22:00,74.0,63.0,29.75,SE,124,1.0,5.0,69,0.00,,,0.48,,2013-06-23 17:22:00,
2013-06-23 12:33:00,75.0,63.0,29.75,SSE,158,1.0,6.0,67,0.00,,,0.48,,2013-06-23 17:33:00,
2013-06-23 12:43:00,75.0,63.0,29.75,SSE,158,1.0,6.0,67,0.00,,,0.48,,2013-06-23 17:43:00,
2013-06-23 12:53:00,75.0,62.0,29.74,NE,41,1.0,6.0,63,0.00,,,0.48,,2013-06-23 17:53:00,
2013-06-23 13:01:00,77.0,64.0,29.75,South,186,1.0,7.0,65,0.00,,,0.48,,2013-06-23 18:01:00,
2013-06-23 13:11:00,77.0,64.0,29.75,South,186,1.0,7.0,65,0.00,,,0.48,,2013-06-23 18:11:00,
2013-06-23 13:22:00,77.0,65.0,29.74,South,172,1.0,7.0,66,0.00,,,0.48,,2013-06-23 18:22:00,
2013-06-23 13:34:00,77.0,63.0,29.75,SE,133,3.0,6.0,63,0.00,,,0.48,,2013-06-23 18:34:00,
2013-06-23 13:42:00,77.0,63.0,29.75,SE,133,3.0,6.0,63,0.00,,,0.48,,2013-06-23 18:42:00,
2013-06-23 13:53:00,78.0,66.0,29.74,SE,143,0.0,6.0,66,0.00,,,0.48,,2013-06-23 18:53:00,
2013-06-23 14:01:00,79.0,65.0,29.74,SSE,162,1.0,8.0,62,0.00,,,0.48,,2013-06-23 19:01:00,
2013-06-23 14:11:00,79.0,65.0,29.74,SSE,162,1.0,8.0,62,0.00,,,0.48,,2013-06-23 19:11:00,
2013-06-23 14:21:00,79.0,65.0,29.74,SE,138,2.0,6.0,63,0.00,,,0.48,,2013-06-23 19:21:00,
2013-06-23 14:32:00,80.0,65.0,29.74,SE,143,1.0,6.0,61,0.00,,,0.48,,2013-06-23 19:32:00,
2013-06-23 14:43:00,80.0,65.0,29.74,SE,143,1.0,6.0,61,0.00,,,0.48,,2013-06-23 19:43:00,
2013-06-23 14:53:00,79.0,65.0,29.73,SE,140,0.0,5.0,62,0.00,,,0.48,,2013-06-23 19:53:00,
2013-06-23 15:02:00,79.0,64.0,29.73,ESE,119,2.0,7.0,60,0.00,,,0.48,,2013-06-23 20:02:00,
2013-06-23 15:12:00,79.0,64.0,29.73,ESE,119,2.0,7.0,60,0.00,,,0.48,,2013-06-23 20:12:00,
2013-06-23 15:24:00,80.0,65.0,29.73,SSE,159,1.0,7.0,61,0.00,,,0.48,,2013-06-23 20:24:00,
2013-06-23 15:33:00,80.0,63.0,29.72,SSE,154,2.0,5.0,57,0.00,,,0.48,,2013-06-23 20:33:00,
2013-06-23 15:42:00,80.0,63.0,29.72,SSE,154,2.0,5.0,57,0.00,,,0.48,,2013-06-23 20:42:00,
2013-06-23 15:53:00,81.0,64.0,29.72,ESE,119,1.0,7.0,57,0.00,,,0.48,,2013-06-23 20:53:00,
2013-06-23 16:01:00,80.0,64.0,29.72,SSE,147,0.0,8.0,59,0.00,,,0.48,,2013-06-23 21:01:00,
2013-06-23 16:11:00,80.0,64.0,29.72,SSE,147,0.0,8.0,59,0.00,,,0.48,,2013-06-23 21:11:00,
2013-06-23 16:22:00,81.0,64.0,29.71,SSE,148,3.0,8.0,57,0.00,,,0.48,,2013-06-23 21:22:00,
2013-06-23 16:33:00,81.0,64.0,29.71,South,171,2.0,7.0,57,0.00,,,0.48,,2013-06-23 21:33:00,
2013-06-23 16:44:00,81.0,64.0,29.71,South,171,2.0,7.0,57,0.00,,,0.48,,2013-06-23 21:44:00,
2013-06-23 16:52:00,81.0,65.0,29.70,SE,144,2.0,9.0,58,0.00,,,0.48,,2013-06-23 21:52:00,
2013-06-23 17:01:00,81.0,64.0,29.70,SE,134,2.0,5.0,56,0.00,,,0.48,,2013-06-23 22:01:00,
2013-06-23 17:11:00,81.0,64.0,29.70,SE,134,2.0,5.0,56,0.00,,,0.48,,2013-06-23 22:11:00,
2013-06-23 17:22:00,81.0,65.0,29.69,SSE,149,1.0,7.0,58,0.00,,,0.48,,2013-06-23 22:22:00,
2013-06-23 17:32:00,81.0,64.0,29.69,SSE,149,2.0,6.0,57,0.00,,,0.48,,2013-06-23 22:32:00,
2013-06-23 17:43:00,81.0,64.0,29.69,SSE,149,2.0,6.0,57,0.00,,,0.48,,2013-06-23 22:43:00,
2013-06-23 17:53:00,82.0,65.0,29.69,SSE,150,2.0,8.0,57,0.00,,,0.48,,2013-06-23 22:53:00,
2013-06-23 18:01:00,82.0,65.0,29.69,South,173,1.0,5.0,57,0.00,,,0.47,,2013-06-23 23:01:00,
2013-06-23 18:11:00,82.0,65.0,29.69,South,173,1.0,5.0,57,0.00,,,0.47,,2013-06-23 23:11:00,
2013-06-23 18:22:00,82.0,65.0,29.68,SSE,153,2.0,5.0,57,0.00,,,0.47,,2013-06-23 23:22:00,
2013-06-23 18:33:00,82.0,65.0,29.68,SE,146,2.0,6.0,57,0.00,,,0.47,,2013-06-23 23:33:00,
2013-06-23 18:44:00,82.0,65.0,29.68,SE,146,2.0,6.0,57,0.00,,,0.47,,2013-06-23 23:44:00,
2013-06-23 18:52:00,82.0,66.0,29.68,SE,132,2.0,9.0,59,0.00,,,0.47,,2013-06-23 23:52:00,
2013-06-23 19:01:00,81.0,66.0,29.68,SE,142,4.0,8.0,60,0.00,,,0.31,,2013-06-24 00:01:00,
2013-06-23 19:11:00,81.0,66.0,29.68,SE,142,4.0,8.0,60,0.00,,,0.31,,2013-06-24 00:11:00,
2013-06-23 19:22:00,81.0,67.0,29.68,SE,146,5.0,10.0,63,0.00,,,0.31,,2013-06-24 00:22:00,
2013-06-23 19:33:00,80.0,67.0,29.68,SE,146,4.0,10.0,65,0.00,,,0.31,,2013-06-24 00:33:00,
2013-06-23 19:42:00,80.0,67.0,29.68,SE,146,4.0,10.0,65,0.00,,,0.31,,2013-06-24 00:42:00,
2013-06-23 19:52:00,80.0,68.0,29.68,SE,140,3.0,9.0,66,0.00,,,0.31,,2013-06-24 00:52:00,
2013-06-23 20:01:00,79.0,67.0,29.68,SE,141,4.0,11.0,67,0.00,,,0.31,,2013-06-24 01:01:00,
2013-06-23 20:11:00,79.0,67.0,29.68,SE,141,4.0,11.0,67,0.00,,,0.31,,2013-06-24 01:11:00,
2013-06-23 20:22:00,78.0,67.0,29.68,SE,136,3.0,12.0,69,0.00,,,0.31,,2013-06-24 01:22:00,
2013-06-23 20:32:00,78.0,67.0,29.68,South,172,3.0,8.0,70,0.00,,,0.31,,2013-06-24 01:32:00,
2013-06-23 20:42:00,78.0,67.0,29.68,South,172,3.0,8.0,70,0.00,,,0.31,,2013-06-24 01:42:00,
2013-06-23 20:53:00,76.0,66.0,29.68,SE,138,1.0,7.0,72,0.00,,,0.31,,2013-06-24 01:53:00,
2013-06-23 21:02:00,75.0,66.0,29.68,SE,142,2.0,6.0,74,0.00,,,0.31,,2013-06-24 02:02:00,
2013-06-23 21:11:00,75.0,66.0,29.68,SE,142,2.0,6.0,74,0.00,,,0.31,,2013-06-24 02:11:00,
2013-06-23 21:22:00,75.0,67.0,29.69,SE,146,0.0,4.0,77,0.00,,,0.31,,2013-06-24 02:22:00,
2013-06-23 21:33:00,74.0,67.0,29.69,SE,138,0.0,3.0,79,0.00,,,0.31,,2013-06-24 02:33:00,
2013-06-23 21:42:00,74.0,67.0,29.69,SE,138,0.0,3.0,79,0.00,,,0.31,,2013-06-24 02:42:00,
2013-06-23 21:53:00,73.0,66.0,29.69,SE,138,0.0,2.0,80,0.00,,,0.31,,2013-06-24 02:53:00,
2013-06-23 22:11:00,73.0,67.0,29.70,SE,130,0.0,3.0,81,0.00,,,0.31,,2013-06-24 03:11:00,
2013-06-23 22:22:00,72.0,66.0,29.70,ESE,123,0.0,2.0,82,0.00,,,0.31,,2013-06-24 03:22:00,
2013-06-23 22:33:00,72.0,67.0,29.70,ESE,123,0.0,3.0,83,0.00,,,0.31,,2013-06-24 03:33:00,
2013-06-23 22:43:00,72.0,67.0,29.70,ESE,123,0.0,3.0,83,0.00,,,0.31,,2013-06-24 03:43:00,
2013-06-23 22:53:00,71.0,66.0,29.70,ESE,123,0.0,3.0,85,0.00,,,0.31,,2013-06-24 03:53:00,
2013-06-23 23:02:00,70.0,66.0,29.70,SE,140,1.0,4.0,86,0.00,,,0.23,,2013-06-24 04:02:00,
2013-06-23 23:12:00,70.0,66.0,29.70,SE,140,1.0,4.0,86,0.00,,,0.23,,2013-06-24 04:12:00,
2013-06-23 23:22:00,70.0,66.0,29.70,SE,140,1.0,4.0,86,0.00,,,0.23,,2013-06-24 04:22:00,
2013-06-23 23:33:00,70.0,66.0,29.70,SE,140,1.0,4.0,86,0.00,,,0.23,,2013-06-24 04:33:00,
2013-06-23 23:43:00,70.0,66.0,29.71,SSE,165,1.0,4.0,87,0.00,,,0.23,,2013-06-24 04:43:00,
2013-06-23 23:53:00,70.0,66.0,29.71,SE,143,0.0,4.0,88,0.00,,,0.23,,2013-06-24 04:53:00,